| time (UTC) | temp F | wind direction | speed knots | gust knots | rain 1hr in | rain 24hr in | rain mn in | humidity % | barometer mb |
| 20260506150509 | 58 | 246 | 3.5 | 9.6 | 0.10 | 0.28 | 0.28 | 90 | 1008.2 |
| 20260506150025 | 58 | 265 | 2.6 | 9.6 | 0.10 | 0.27 | 0.27 | 90 | 1008.2 |
| 20260506145506 | 58 | 259 | 3.5 | 9.6 | 0.10 | 0.26 | 0.26 | 90 | 1008.2 |
| 20260506145009 | 58 | 218 | 3.5 | 5.2 | 0.10 | 0.25 | 0.25 | 90 | 1008.1 |
| 20260506144511 | 58 | 248 | 2.6 | 7.8 | 0.09 | 0.24 | 0.24 | 90 | 1008.1 |
| 20260506144005 | 58 | 229 | 2.6 | 7.8 | 0.09 | 0.24 | 0.24 | 90 | 1007.9 |
| 20260506143505 | 58 | 260 | 3.5 | 8.7 | 0.09 | 0.23 | 0.23 | 90 | 1008.2 |
| 20260506143027 | 58 | 248 | 5.2 | 8.7 | 0.07 | 0.21 | 0.21 | 90 | 1008.2 |
| 20260506142506 | 58 | 257 | 2.6 | 7.8 | 0.08 | 0.21 | 0.21 | 90 | 1007.9 |
| 20260506142007 | 58 | 248 | 4.3 | 7.8 | 0.08 | 0.20 | 0.20 | 90 | 1008.0 |
| 20260506141528 | 58 | 258 | 3.5 | 11.3 | 0.08 | 0.19 | 0.19 | 89 | 1008.2 |
| 20260506141009 | 58 | 254 | 1.7 | 11.3 | 0.09 | 0.19 | 0.19 | 89 | 1008.1 |
| 20260506140507 | 58 | 261 | 3.5 | 9.6 | 0.09 | 0.18 | 0.18 | 89 | 1008.1 |
| 20260506140026 | 58 | 207 | 2.6 | 9.6 | 0.09 | 0.17 | 0.17 | 89 | 1008.1 |
| 20260506135514 | 58 | 230 | 4.3 | 9.6 | 0.09 | 0.16 | 0.16 | 89 | 1008.2 |
| 20260506135008 | 58 | 248 | 2.6 | 7.0 | 0.08 | 0.15 | 0.15 | 89 | 1008.3 |
| 20260506134528 | 58 | 270 | 1.7 | 6.1 | 0.10 | 0.15 | 0.15 | 88 | 1008.2 |
| 20260506134004 | 58 | 226 | 0.9 | 7.8 | 0.11 | 0.15 | 0.15 | 88 | 1008.2 |
| 20260506133505 | 58 | 269 | 3.5 | 7.8 | 0.11 | 0.14 | 0.14 | 88 | 1008.3 |
| 20260506133015 | 58 | 257 | 3.5 | 6.1 | 0.11 | 0.14 | 0.14 | 88 | 1008.5 |
| 20260506132511 | 58 | 241 | 2.6 | 6.1 | 0.11 | 0.13 | 0.13 | 88 | 1008.7 |
| 20260506132010 | 58 | 218 | 1.7 | 6.1 | 0.11 | 0.12 | 0.12 | 87 | 1008.7 |
| 20260506131520 | 58 | 244 | 1.7 | 6.1 | 0.11 | 0.11 | 0.11 | 86 | 1008.7 |
| 20260506131010 | 58 | 265 | 1.7 | 6.1 | 0.10 | 0.10 | 0.10 | 86 | 1008.7 |
| 20260506130506 | 58 | 234 | 3.5 | 7.0 | 0.09 | 0.09 | 0.09 | 86 | 1008.8 |
| 20260506130025 | 58 | 235 | 2.6 | 7.0 | 0.08 | 0.08 | 0.08 | 85 | 1008.8 |
| 20260506125510 | 58 | 255 | 3.5 | 6.1 | 0.07 | 0.07 | 0.07 | 84 | 1008.9 |
| 20260506125010 | 59 | 243 | 3.5 | 6.1 | 0.07 | 0.07 | 0.07 | 84 | 1008.9 |
| 20260506124525 | 59 | 224 | 3.5 | 7.0 | 0.05 | 0.05 | 0.05 | 83 | 1009.0 |
| 20260506124010 | 59 | 257 | 4.3 | 7.0 | 0.04 | 0.04 | 0.04 | 82 | 1008.9 |
| 20260506123510 | 60 | 273 | 2.6 | 7.8 | 0.03 | 0.03 | 0.03 | 81 | 1008.9 |
| 20260506123010 | 60 | 253 | 3.5 | 7.8 | 0.03 | 0.03 | 0.03 | 80 | 1008.9 |
| 20260506122506 | 60 | 261 | 3.5 | 6.1 | 0.02 | 0.02 | 0.02 | 78 | 1008.8 |
| 20260506122011 | 60 | 240 | 4.3 | 6.1 | 0.01 | 0.01 | 0.01 | 77 | 1008.8 |
| 20260506121523 | 61 | 250 | 1.7 | 7.8 | 0.00 | 0.00 | 0.00 | 76 | 1008.7 |
| 20260506121007 | 61 | 262 | 3.5 | 7.8 | 0.00 | 0.00 | 0.00 | 76 | 1008.7 |
| 20260506120507 | 61 | 254 | 3.5 | 7.8 | 0.00 | 0.00 | 0.00 | 75 | 1008.6 |
| 20260506120033 | 61 | 236 | 3.5 | 7.8 | 0.00 | 0.00 | 0.00 | 74 | 1008.7 |
| 20260506115511 | 61 | 244 | 2.6 | 7.0 | 0.00 | 0.00 | 0.00 | 73 | 1008.6 |
| 20260506115009 | 62 | 225 | 2.6 | 7.0 | 0.00 | 0.00 | 0.00 | 73 | 1008.5 |
| 20260506114526 | 62 | 256 | 3.5 | 7.0 | 0.00 | 0.00 | 0.00 | 72 | 1008.5 |
| 20260506114012 | 62 | 201 | 1.7 | 7.0 | 0.00 | 0.00 | 0.00 | 71 | 1008.5 |
| 20260506113509 | 62 | 232 | 3.5 | 7.0 | 0.00 | 0.00 | 0.00 | 70 | 1008.4 |
| 20260506113030 | 62 | 252 | 2.6 | 7.0 | 0.00 | 0.00 | 0.00 | 70 | 1008.3 |
| 20260506112510 | 62 | 250 | 0.9 | 7.8 | 0.00 | 0.00 | 0.00 | 70 | 1008.3 |
| 20260506112015 | 62 | 230 | 4.3 | 8.7 | 0.00 | 0.00 | 0.00 | 68 | 1008.3 |
| 20260506111516 | 63 | 227 | 2.6 | 8.7 | 0.00 | 0.00 | 0.00 | 67 | 1008.3 |
| 20260506111010 | 63 | 254 | 2.6 | 6.1 | 0.00 | 0.00 | 0.00 | 67 | 1008.3 |
| 20260506110504 | 63 | 238 | 2.6 | 7.8 | 0.00 | 0.00 | 0.00 | 66 | 1008.2 |
| 20260506110020 | 63 | 259 | 3.5 | 7.8 | 0.00 | 0.00 | 0.00 | 66 | 1008.1 |
| 20260506105505 | 63 | 246 | 1.7 | 7.0 | 0.00 | 0.00 | 0.00 | 66 | 1008.1 |
| 20260506105008 | 63 | 221 | 2.6 | 7.0 | 0.00 | 0.00 | 0.00 | 65 | 1008.1 |
| 20260506104523 | 63 | 263 | 3.5 | 7.0 | 0.00 | 0.00 | 0.00 | 65 | 1008.0 |
| 20260506104009 | 63 | 259 | 3.5 | 6.1 | 0.00 | 0.00 | 0.00 | 65 | 1008.0 |
| 20260506103511 | 63 | 243 | 2.6 | 7.0 | 0.00 | 0.00 | 0.00 | 64 | 1007.9 |
| 20260506103026 | 63 | 246 | 2.6 | 7.0 | 0.00 | 0.00 | 0.00 | 64 | 1007.7 |
| 20260506102509 | 63 | 225 | 2.6 | 7.8 | 0.00 | 0.00 | 0.00 | 63 | 1007.7 |
| 20260506102010 | 63 | 265 | 1.7 | 7.8 | 0.00 | 0.00 | 0.00 | 63 | 1007.7 |
| 20260506101528 | 64 | 249 | 2.6 | 5.2 | 0.00 | 0.00 | 0.00 | 62 | 1007.6 |
| 20260506101010 | 64 | 242 | 2.6 | 7.0 | 0.00 | 0.00 | 0.00 | 62 | 1007.6 |
| 20260506100508 | 64 | 252 | 1.7 | 7.0 | 0.00 | 0.00 | 0.00 | 61 | 1007.7 |
| 20260506100018 | 64 | 257 | 2.6 | 7.0 | 0.00 | 0.00 | 0.00 | 61 | 1007.6 |
| 20260506095507 | 64 | 232 | 3.5 | 7.0 | 0.00 | 0.00 | 0.00 | 60 | 1007.6 |
| 20260506095005 | 64 | 238 | 2.6 | 7.0 | 0.00 | 0.00 | 0.00 | 60 | 1007.7 |
| 20260506094524 | 64 | 266 | 1.7 | 7.0 | 0.00 | 0.00 | 0.00 | 60 | 1007.8 |
| 20260506094011 | 64 | 263 | 3.5 | 7.0 | 0.00 | 0.00 | 0.00 | 59 | 1007.8 |
| 20260506093511 | 64 | 229 | 1.7 | 5.2 | 0.00 | 0.00 | 0.00 | 59 | 1007.8 |
| 20260506093024 | 64 | 223 | 1.7 | 6.1 | 0.00 | 0.00 | 0.00 | 59 | 1007.9 |
| 20260506092507 | 64 | 227 | 2.6 | 7.0 | 0.00 | 0.00 | 0.00 | 58 | 1008.0 |
| 20260506092011 | 64 | 246 | 3.5 | 7.0 | 0.00 | 0.00 | 0.00 | 58 | 1008.0 |
| 20260506091531 | 64 | 244 | 2.6 | 7.0 | 0.00 | 0.00 | 0.00 | 58 | 1007.9 |
| 20260506091009 | 64 | 232 | 3.5 | 7.0 | 0.00 | 0.00 | 0.00 | 58 | 1008.1 |
| 20260506090509 | 64 | 226 | 2.6 | 7.0 | 0.00 | 0.00 | 0.00 | 57 | 1008.0 |
| 20260506090041 | 64 | 221 | 3.5 | 7.0 | 0.00 | 0.00 | 0.00 | 57 | 1008.1 |
| 20260506085512 | 64 | 234 | 4.3 | 7.8 | 0.00 | 0.00 | 0.00 | 57 | 1008.0 |
| 20260506085008 | 64 | 226 | 4.3 | 7.8 | 0.00 | 0.00 | 0.00 | 56 | 1007.9 |
| 20260506084523 | 65 | 225 | 4.3 | 7.0 | 0.00 | 0.00 | 0.00 | 56 | 1008.1 |
| 20260506084009 | 65 | 227 | 3.5 | 7.8 | 0.00 | 0.00 | 0.00 | 55 | 1008.1 |
| 20260506083509 | 65 | 228 | 4.3 | 9.6 | 0.00 | 0.00 | 0.00 | 55 | 1008.0 |
| 20260506083028 | 65 | 228 | 4.3 | 8.7 | 0.00 | 0.00 | 0.00 | 55 | 1008.1 |
| 20260506082502 | 65 | 236 | 6.1 | 7.8 | 0.00 | 0.00 | 0.00 | 54 | 1008.0 |
| 20260506082001 | 65 | 259 | 4.3 | 7.8 | 0.00 | 0.00 | 0.00 | 54 | 1008.1 |
| 20260506081510 | 65 | 255 | 3.5 | 7.8 | 0.00 | 0.00 | 0.00 | 54 | 1008.1 |
| 20260506081005 | 65 | 242 | 4.3 | 7.8 | 0.00 | 0.00 | 0.00 | 53 | 1008.1 |
| 20260506080503 | 65 | 254 | 5.2 | 8.7 | 0.00 | 0.00 | 0.00 | 53 | 1008.0 |
| 20260506073508 | 65 | 233 | 5.2 | 8.7 | 0.00 | 0.00 | 0.00 | 51 | 1008.1 |
| 20260506073022 | 65 | 239 | 5.2 | 7.8 | 0.00 | 0.00 | 0.00 | 51 | 1008.0 |
| 20260506072513 | 65 | 238 | 3.5 | 7.8 | 0.00 | 0.00 | 0.00 | 50 | 1008.0 |
| 20260506072001 | 65 | 227 | 4.3 | 7.8 | 0.00 | 0.00 | 0.00 | 50 | 1008.2 |
| 20260506071507 | 66 | 232 | 3.5 | 9.6 | 0.00 | 0.00 | 0.00 | 50 | 1008.2 |
| 20260506071001 | 66 | 246 | 3.5 | 9.6 | 0.00 | 0.00 | 0.00 | 50 | 1008.3 |
| 20260506070502 | 66 | 263 | 5.2 | 9.6 | 0.00 | 0.00 | 0.00 | 49 | 1008.3 |
| 20260506062508 | 66 | 246 | 4.3 | 8.7 | 0.00 | 0.00 | 0.00 | 47 | 1008.9 |
| 20260506062010 | 66 | 232 | 4.3 | 8.7 | 0.00 | 0.00 | 0.00 | 48 | 1009.0 |
| 20260506061543 | 66 | 245 | 3.5 | 7.8 | 0.00 | 0.00 | 0.00 | 47 | 1009.1 |
| 20260506061001 | 66 | 251 | 4.3 | 7.8 | 0.00 | 0.00 | 0.00 | 47 | 1009.1 |
| 20260506060504 | 66 | 267 | 4.3 | 7.8 | 0.00 | 0.00 | 0.00 | 46 | 1009.1 |
| 20260506051009 | 66 | 257 | 5.2 | 7.0 | 0.00 | 0.00 | 0.00 | 45 | 1009.6 |
| 20260506050511 | 66 | 229 | 4.3 | 7.0 | 0.00 | 0.00 | 0.00 | 45 | 1009.6 |
| 20260506045002 | 67 | 248 | 4.3 | 7.8 | 0.00 | 0.00 | 0.00 | 45 | 1009.6 |
| 20260506044520 | 67 | 234 | 3.5 | 6.1 | 0.00 | 0.00 | 0.00 | 45 | 1009.6 |
| 20260506044007 | 67 | 261 | 2.6 | 7.8 | 0.00 | 0.00 | 0.00 | 45 | 1009.5 |
| 20260506043503 | 67 | 241 | 4.3 | 7.8 | 0.00 | 0.00 | 0.00 | 45 | 1009.5 |
| 20260506043034 | 67 | 249 | 3.5 | 7.0 | 0.00 | 0.00 | 0.00 | 45 | 1009.5 |
| 20260506042507 | 67 | 245 | 3.5 | 7.0 | 0.00 | 0.00 | 0.00 | 45 | 1009.6 |
| 20260506042008 | 67 | 250 | 3.5 | 7.0 | 0.00 | 0.00 | 0.00 | 44 | 1009.6 |
| 20260506041526 | 67 | 246 | 3.5 | 5.2 | 0.00 | 0.00 | 0.00 | 44 | 1009.6 |
| 20260506041007 | 67 | 247 | 3.5 | 7.0 | 0.00 | 0.00 | 0.00 | 44 | 1009.7 |
| 20260506040512 | 67 | 255 | 2.6 | 7.0 | 0.00 | 0.00 | 0.00 | 44 | 1009.7 |
| 20260506040025 | 67 | 254 | 4.3 | 6.1 | 0.00 | 0.00 | 0.00 | 44 | 1009.6 |
| 20260506035506 | 68 | 236 | 3.5 | 7.0 | 0.00 | 0.00 | 0.00 | 44 | 1009.7 |
| 20260506035016 | 68 | 248 | 3.5 | 7.0 | 0.00 | 0.00 | 0.00 | 44 | 1009.7 |
| 20260506034512 | 68 | 249 | 3.5 | 7.0 | 0.00 | 0.00 | 0.00 | 44 | 1009.8 |
| 20260506034001 | 68 | 250 | 4.3 | 7.0 | 0.00 | 0.00 | 0.00 | 43 | 1009.8 |
| 20260506033505 | 68 | 254 | 2.6 | 6.1 | 0.00 | 0.00 | 0.00 | 43 | 1009.7 |
| 20260506033018 | 68 | 257 | 2.6 | 6.1 | 0.00 | 0.00 | 0.00 | 43 | 1009.7 |
| 20260506032503 | 68 | 261 | 3.5 | 6.1 | 0.00 | 0.00 | 0.00 | 44 | 1009.7 |
| 20260506032008 | 68 | 235 | 3.5 | 6.1 | 0.00 | 0.00 | 0.00 | 43 | 1009.7 |
| 20260506031524 | 68 | 234 | 2.6 | 6.1 | 0.00 | 0.00 | 0.00 | 44 | 1009.6 |
| 20260506031011 | 68 | 242 | 2.6 | 6.1 | 0.00 | 0.00 | 0.00 | 43 | 1009.6 |
| 20260506030507 | 68 | 227 | 2.6 | 6.1 | 0.00 | 0.00 | 0.00 | 44 | 1009.6 |
| 20260506030027 | 68 | 240 | 2.6 | 5.2 | 0.00 | 0.00 | 0.00 | 44 | 1009.7 |
| 20260506025509 | 67 | 254 | 1.7 | 5.2 | 0.00 | 0.00 | 0.00 | 44 | 1009.7 |
| 20260506025011 | 67 | 285 | 2.6 | 5.2 | 0.00 | 0.00 | 0.00 | 44 | 1009.7 |
| 20260506024540 | 67 | 254 | 0.9 | 2.6 | 0.00 | 0.00 | 0.00 | 44 | 1009.7 |
| 20260506024014 | 67 | 260 | 0.9 | 2.6 | 0.00 | 0.00 | 0.00 | 45 | 1009.7 |
| 20260506023513 | 67 | 297 | 0.9 | 2.6 | 0.00 | 0.00 | 0.00 | 45 | 1009.7 |
| 20260506023015 | 67 | 257 | 0.9 | 2.6 | 0.00 | 0.00 | 0.00 | 44 | 1009.7 |
| 20260506022508 | 67 | 293 | 0.0 | 0.9 | 0.00 | 0.00 | 0.00 | 44 | 1009.7 |
| 20260506022004 | 68 | 279 | 0.0 | 0.9 | 0.00 | 0.00 | 0.00 | 44 | 1009.8 |
| 20260506021521 | 68 | 277 | 0.0 | 1.7 | 0.00 | 0.00 | 0.00 | 43 | 1009.7 |
| 20260506021012 | 69 | 277 | 0.0 | 1.7 | 0.00 | 0.00 | 0.00 | 43 | 1009.7 |
| 20260506020509 | 69 | 277 | 0.0 | 1.7 | 0.00 | 0.00 | 0.00 | 42 | 1009.8 |
| 20260506020024 | 70 | 277 | 0.0 | 1.7 | 0.00 | 0.00 | 0.00 | 41 | 1009.9 |
| 20260506015509 | 70 | 278 | 0.0 | 1.7 | 0.00 | 0.00 | 0.00 | 41 | 1009.8 |
| 20260506015009 | 70 | 258 | 0.0 | 1.7 | 0.00 | 0.00 | 0.00 | 40 | 1009.7 |
| 20260506014530 | 71 | 261 | 0.0 | 2.6 | 0.00 | 0.00 | 0.00 | 40 | 1009.6 |
| 20260506014010 | 71 | 249 | 0.9 | 4.3 | 0.00 | 0.00 | 0.00 | 39 | 1009.6 |
| 20260506013512 | 71 | 252 | 2.6 | 4.3 | 0.00 | 0.00 | 0.00 | 39 | 1009.6 |
| 20260506013025 | 71 | 272 | 0.9 | 4.3 | 0.00 | 0.00 | 0.00 | 39 | 1009.5 |
| 20260506012510 | 72 | 242 | 0.9 | 3.5 | 0.00 | 0.00 | 0.00 | 40 | 1009.5 |
| 20260506012007 | 72 | 252 | 0.0 | 6.1 | 0.00 | 0.00 | 0.00 | 40 | 1009.3 |
| 20260506011515 | 72 | 249 | 2.6 | 6.1 | 0.00 | 0.00 | 0.00 | 39 | 1009.3 |
| 20260506011006 | 72 | 264 | 1.7 | 6.1 | 0.00 | 0.00 | 0.00 | 39 | 1009.2 |
| 20260506010502 | 72 | 242 | 3.5 | 7.0 | 0.00 | 0.00 | 0.00 | 38 | 1009.0 |
| 20260506010006 | 72 | 267 | 2.6 | 7.0 | 0.00 | 0.00 | 0.00 | 39 | 1009.0 |
| 20260506005502 | 72 | 212 | 2.6 | 7.0 | 0.00 | 0.00 | 0.00 | 39 | 1009.0 |
| 20260506005002 | 73 | 254 | 3.5 | 7.0 | 0.00 | 0.00 | 0.00 | 38 | 1008.8 |
| 20260506004506 | 73 | 323 | 1.7 | 6.1 | 0.00 | 0.00 | 0.00 | 39 | 1008.8 |
| 20260506004004 | 73 | 245 | 2.6 | 5.2 | 0.00 | 0.00 | 0.00 | 39 | 1008.8 |
| 20260506003504 | 73 | 257 | 2.6 | 5.2 | 0.00 | 0.00 | 0.00 | 39 | 1008.8 |
| 20260506003008 | 73 | 248 | 1.7 | 3.5 | 0.00 | 0.00 | 0.00 | 39 | 1008.7 |
| 20260506002506 | 73 | 260 | 1.7 | 5.2 | 0.00 | 0.00 | 0.00 | 39 | 1008.7 |
| 20260506002005 | 73 | 232 | 0.9 | 6.1 | 0.00 | 0.00 | 0.00 | 40 | 1008.6 |
| 20260506001527 | 73 | 236 | 2.6 | 6.1 | 0.00 | 0.00 | 0.00 | 39 | 1008.6 |
| 20260506001006 | 73 | 246 | 2.6 | 8.7 | 0.00 | 0.00 | 0.00 | 39 | 1008.5 |
| 20260506000503 | 73 | 257 | 5.2 | 8.7 | 0.00 | 0.00 | 0.00 | 39 | 1008.4 |
| 20260506000019 | 73 | 244 | 2.6 | 7.8 | 0.00 | 0.00 | 0.00 | 39 | 1008.3 |
| 20260505235507 | 74 | 248 | 4.3 | 7.8 | 0.00 | 0.00 | 0.00 | 39 | 1008.3 |
| 20260505235003 | 74 | 254 | 5.2 | 7.8 | 0.00 | 0.00 | 0.00 | 39 | 1008.2 |
| 20260505234503 | 74 | 220 | 4.3 | 8.7 | 0.00 | 0.00 | 0.00 | 39 | 1008.3 |
| 20260505234004 | 74 | 212 | 2.6 | 10.4 | 0.00 | 0.00 | 0.00 | 39 | 1008.2 |
| 20260505233504 | 74 | 230 | 5.2 | 10.4 | 0.00 | 0.00 | 0.00 | 39 | 1008.1 |
| 20260505233006 | 74 | 250 | 2.6 | 7.0 | 0.00 | 0.00 | 0.00 | 40 | 1008.1 |
| 20260505232507 | 74 | 266 | 3.5 | 7.8 | 0.00 | 0.00 | 0.00 | 40 | 1008.2 |
| 20260505232006 | 74 | 269 | 2.6 | 7.8 | 0.00 | 0.00 | 0.00 | 39 | 1008.1 |
| 20260505231510 | 74 | 227 | 3.5 | 9.6 | 0.00 | 0.00 | 0.00 | 39 | 1008.1 |
| 20260505231008 | 74 | 239 | 6.1 | 9.6 | 0.00 | 0.00 | 0.00 | 38 | 1008.1 |
| 20260505230505 | 74 | 257 | 2.6 | 8.7 | 0.00 | 0.00 | 0.00 | 39 | 1008.1 |
| 20260505230018 | 74 | 266 | 5.2 | 8.7 | 0.00 | 0.00 | 0.00 | 39 | 1008.0 |
| 20260505225508 | 74 | 263 | 4.3 | 9.6 | 0.00 | 0.00 | 0.00 | 39 | 1008.0 |
| 20260505225004 | 74 | 244 | 3.5 | 9.6 | 0.00 | 0.00 | 0.00 | 39 | 1008.1 |
| 20260505224520 | 74 | 263 | 5.2 | 12.2 | 0.00 | 0.00 | 0.00 | 39 | 1008.1 |
| 20260505224003 | 74 | 253 | 7.0 | 12.2 | 0.00 | 0.00 | 0.00 | 39 | 1008.0 |
| 20260505223503 | 74 | 244 | 5.2 | 11.3 | 0.00 | 0.00 | 0.00 | 40 | 1008.1 |
| 20260505223004 | 74 | 260 | 2.6 | 7.8 | 0.00 | 0.00 | 0.00 | 41 | 1007.9 |
| 20260505222504 | 74 | 239 | 3.5 | 7.8 | 0.00 | 0.00 | 0.00 | 41 | 1007.9 |
| 20260505222005 | 74 | 258 | 2.6 | 7.8 | 0.00 | 0.00 | 0.00 | 41 | 1008.0 |
| 20260505221508 | 74 | 249 | 3.5 | 7.0 | 0.00 | 0.00 | 0.00 | 40 | 1008.1 |
| 20260505221004 | 74 | 257 | 3.5 | 6.1 | 0.00 | 0.00 | 0.00 | 41 | 1008.0 |
| 20260505220503 | 74 | 250 | 2.6 | 6.1 | 0.00 | 0.00 | 0.00 | 41 | 1008.0 |
| 20260505220014 | 74 | 261 | 2.6 | 7.8 | 0.00 | 0.00 | 0.00 | 41 | 1007.9 |
| 20260505215506 | 74 | 218 | 3.5 | 8.7 | 0.00 | 0.00 | 0.00 | 41 | 1007.9 |
| 20260505215006 | 74 | 243 | 5.2 | 11.3 | 0.00 | 0.00 | 0.00 | 40 | 1007.8 |
| 20260505214524 | 74 | 247 | 5.2 | 11.3 | 0.00 | 0.00 | 0.00 | 40 | 1007.9 |
| 20260505214008 | 74 | 263 | 3.5 | 8.7 | 0.00 | 0.00 | 0.00 | 41 | 1007.8 |
| 20260505213507 | 74 | 236 | 3.5 | 7.0 | 0.00 | 0.00 | 0.00 | 41 | 1007.8 |
| 20260505213024 | 74 | 250 | 4.3 | 10.4 | 0.00 | 0.00 | 0.00 | 40 | 1007.8 |
| 20260505212503 | 74 | 246 | 2.6 | 10.4 | 0.00 | 0.00 | 0.00 | 40 | 1007.8 |
| 20260505212003 | 74 | 242 | 6.1 | 10.4 | 0.00 | 0.00 | 0.00 | 40 | 1007.8 |
| 20260505211508 | 74 | 227 | 7.0 | 13.0 | 0.00 | 0.00 | 0.00 | 39 | 1007.7 |
| 20260505211004 | 75 | 286 | 6.1 | 13.0 | 0.00 | 0.00 | 0.00 | 39 | 1007.7 |
| 20260505210508 | 75 | 242 | 3.5 | 9.6 | 0.00 | 0.00 | 0.00 | 40 | 1007.7 |
| 20260505210012 | 75 | 260 | 4.3 | 11.3 | 0.00 | 0.00 | 0.00 | 39 | 1007.6 |
| 20260505205505 | 75 | 240 | 4.3 | 11.3 | 0.00 | 0.00 | 0.00 | 39 | 1007.6 |
| 20260505205007 | 75 | 244 | 0.0 | 4.3 | 0.00 | 0.00 | 0.00 | 40 | 1007.6 |
| 20260505204517 | 75 | 236 | 0.0 | 0.0 | 0.00 | 0.00 | 0.00 | 38 | 1007.6 |
| 20260505204008 | 76 | 225 | 0.0 | 1.7 | 0.00 | 0.00 | 0.00 | 38 | 1007.6 |
| 20260505203509 | 76 | 227 | 0.0 | 13.9 | 0.00 | 0.00 | 0.00 | 38 | 1007.4 |
| 20260505203022 | 76 | 247 | 0.0 | 13.9 | 0.00 | 0.00 | 0.00 | 37 | 1007.5 |
| 20260505202508 | 76 | 234 | 5.2 | 10.4 | 0.00 | 0.00 | 0.00 | 38 | 1007.5 |
| 20260505202008 | 77 | 236 | 3.5 | 11.3 | 0.00 | 0.00 | 0.00 | 37 | 1007.3 |
| 20260505201510 | 77 | 225 | 5.2 | 13.9 | 0.00 | 0.00 | 0.00 | 38 | 1007.7 |
| 20260505201004 | 78 | 232 | 7.0 | 12.2 | 0.00 | 0.00 | 0.00 | 37 | 1007.6 |
| 20260505200505 | 78 | 229 | 7.0 | 13.0 | 0.00 | 0.00 | 0.00 | 37 | 1007.7 |
| 20260505200008 | 78 | 232 | 5.2 | 13.0 | 0.00 | 0.00 | 0.00 | 36 | 1007.6 |
| 20260505195508 | 78 | 253 | 5.2 | 10.4 | 0.00 | 0.00 | 0.00 | 36 | 1007.6 |
| 20260505195006 | 79 | 225 | 3.5 | 10.4 | 0.00 | 0.00 | 0.00 | 37 | 1007.7 |
| 20260505194527 | 79 | 232 | 5.2 | 10.4 | 0.00 | 0.00 | 0.00 | 36 | 1007.7 |
| 20260505194006 | 79 | 236 | 4.3 | 9.6 | 0.00 | 0.00 | 0.00 | 35 | 1007.5 |
| 20260505193510 | 79 | 213 | 3.5 | 9.6 | 0.00 | 0.00 | 0.00 | 38 | 1007.6 |
| 20260505193018 | 79 | 189 | 3.5 | 11.3 | 0.00 | 0.00 | 0.00 | 37 | 1007.6 |
| 20260505192516 | 79 | 215 | 1.7 | 11.3 | 0.00 | 0.00 | 0.00 | 39 | 1007.6 |
| 20260505192009 | 79 | 252 | 6.1 | 11.3 | 0.00 | 0.00 | 0.00 | 36 | 1007.7 |
| 20260505191526 | 79 | 232 | 5.2 | 12.2 | 0.00 | 0.00 | 0.00 | 36 | 1007.9 |
| 20260505191007 | 79 | 243 | 7.0 | 12.2 | 0.00 | 0.00 | 0.00 | 35 | 1007.9 |
| 20260505190503 | 78 | 261 | 6.1 | 11.3 | 0.00 | 0.00 | 0.00 | 36 | 1007.9 |
| 20260505190007 | 78 | 238 | 6.1 | 11.3 | 0.00 | 0.00 | 0.00 | 38 | 1008.1 |
| 20260505185507 | 77 | 237 | 5.2 | 10.4 | 0.00 | 0.00 | 0.00 | 36 | 1008.2 |
| 20260505185010 | 77 | 232 | 4.3 | 9.6 | 0.00 | 0.00 | 0.00 | 40 | 1008.3 |
| 20260505184514 | 76 | 273 | 5.2 | 12.2 | 0.00 | 0.00 | 0.00 | 39 | 1008.3 |
| 20260505184006 | 77 | 249 | 2.6 | 12.2 | 0.00 | 0.00 | 0.00 | 36 | 1008.5 |
| 20260505183507 | 77 | 241 | 6.1 | 11.3 | 0.00 | 0.00 | 0.00 | 36 | 1008.3 |
| 20260505183027 | 77 | 246 | 3.5 | 12.2 | 0.00 | 0.00 | 0.00 | 37 | 1008.5 |
| 20260505182511 | 77 | 249 | 7.8 | 13.0 | 0.00 | 0.00 | 0.00 | 35 | 1008.7 |
| 20260505182010 | 77 | 246 | 8.7 | 13.9 | 0.00 | 0.00 | 0.00 | 35 | 1008.7 |
| 20260505181524 | 77 | 264 | 6.1 | 13.9 | 0.00 | 0.00 | 0.00 | 36 | 1008.8 |
| 20260505181009 | 78 | 241 | 4.3 | 9.6 | 0.00 | 0.00 | 0.00 | 38 | 1008.7 |
| 20260505180508 | 78 | 248 | 6.1 | 13.0 | 0.00 | 0.00 | 0.00 | 39 | 1008.8 |
| 20260505180026 | 78 | 250 | 3.5 | 13.0 | 0.00 | 0.00 | 0.00 | 39 | 1008.9 |
| 20260505175510 | 78 | 257 | 7.8 | 13.0 | 0.00 | 0.00 | 0.00 | 36 | 1008.8 |
| 20260505175005 | 78 | 217 | 7.8 | 13.0 | 0.00 | 0.00 | 0.00 | 37 | 1008.8 |
| 20260505174509 | 78 | 229 | 7.0 | 13.0 | 0.00 | 0.00 | 0.00 | 38 | 1008.7 |
| 20260505174006 | 78 | 227 | 3.5 | 15.6 | 0.00 | 0.00 | 0.00 | 40 | 1008.8 |
| 20260505173509 | 77 | 248 | 6.1 | 15.6 | 0.00 | 0.00 | 0.00 | 40 | 1009.0 |
| 20260505173017 | 77 | 273 | 5.2 | 10.4 | 0.00 | 0.00 | 0.00 | 39 | 1008.8 |
| 20260505172505 | 77 | 212 | 6.1 | 13.0 | 0.00 | 0.00 | 0.00 | 40 | 1008.7 |
| 20260505172005 | 77 | 254 | 9.6 | 13.0 | 0.00 | 0.00 | 0.00 | 39 | 1008.7 |
| 20260505171521 | 77 | 234 | 7.8 | 13.0 | 0.00 | 0.00 | 0.00 | 40 | 1009.0 |
| 20260505171006 | 77 | 251 | 6.1 | 13.0 | 0.00 | 0.00 | 0.00 | 40 | 1009.0 |
| 20260505170507 | 77 | 252 | 6.1 | 11.3 | 0.00 | 0.00 | 0.00 | 40 | 1009.1 |
| 20260505170022 | 77 | 213 | 3.5 | 8.7 | 0.00 | 0.00 | 0.00 | 41 | 1009.0 |
| 20260505165509 | 77 | 273 | 4.3 | 13.0 | 0.00 | 0.00 | 0.00 | 39 | 1009.2 |
| 20260505165008 | 77 | 247 | 7.0 | 11.3 | 0.00 | 0.00 | 0.00 | 41 | 1009.3 |
| 20260505164526 | 78 | 267 | 2.6 | 12.2 | 0.00 | 0.00 | 0.00 | 41 | 1009.3 |
| 20260505164011 | 78 | 223 | 3.5 | 12.2 | 0.00 | 0.00 | 0.00 | 43 | 1009.4 |
| 20260505163507 | 78 | 253 | 2.6 | 7.0 | 0.00 | 0.00 | 0.00 | 41 | 1009.6 |
| 20260505163026 | 77 | 266 | 4.3 | 9.6 | 0.00 | 0.00 | 0.00 | 40 | 1009.5 |
| 20260505162505 | 77 | 234 | 4.3 | 9.6 | 0.00 | 0.00 | 0.00 | 41 | 1009.6 |
| 20260505162010 | 77 | 241 | 2.6 | 10.4 | 0.00 | 0.00 | 0.00 | 42 | 1009.6 |
| 20260505161519 | 76 | 244 | 6.1 | 9.6 | 0.00 | 0.00 | 0.00 | 43 | 1009.7 |
| 20260505161007 | 76 | 265 | 4.3 | 9.6 | 0.00 | 0.00 | 0.00 | 42 | 1009.6 |
| 20260505160514 | 76 | 321 | 4.3 | 11.3 | 0.00 | 0.00 | 0.00 | 43 | 1009.6 |
| 20260505153010 | 75 | 222 | 4.3 | 10.4 | 0.00 | 0.00 | 0.00 | 46 | 1010.0 |
| 20260505152506 | 74 | 223 | 7.0 | 9.6 | 0.00 | 0.00 | 0.00 | 47 | 1010.0 |
| 20260505152011 | 74 | 257 | 3.5 | 9.6 | 0.00 | 0.00 | 0.00 | 48 | 1010.1 |
| 20260505151528 | 74 | 232 | 2.6 | 7.8 | 0.00 | 0.00 | 0.00 | 49 | 1010.0 |
| 20260505151007 | 74 | 227 | 4.3 | 11.3 | 0.00 | 0.00 | 0.00 | 49 | 1010.0 |